STARLINK-31862, 59786

Orbit data source: Space-Track

STARLINK-31862, 59786 is a payload satellite owned by SpaceX/Seattle (US) in LEO that was launched on Sat, 18 May 2024 UTC via an FALCON 9 launch vehicle from the Air Force Eastern Test Range (AFETR). Payloads include a variety of satellites, spacecraft, and rockets equipped with specific instruments for various scientific and technological missions. These include communications satellites like Starlink; space stations such as the ISS; scientific satellites like the Hubble; Earth observation satellites from companies like Planet Labs, Umbra, and HawkEye 360; GPS; miniature CubeSats for education and research; and military/defense satellites.

Loading next visibility...
STARLINK-31862 details
Identifier
59786, 2024-093E
Orbit
LEO
Last TLE update16 hours ago
Origin
Flag of USSpaceX/Seattle (US)
ManufacturerSpaceX/Seattle
MissionOperational spacecraft
Bus & MotorSTARLINK V2M, Unknown motor
Mass730 kg wet, ~700 kg dry
Launch date (UTC)
2024-05-18 (9 months ago)
Launch vehicle
FALCON 9
Launch site
Air Force Eastern Test Range (AFETR)
Object type
Payload
Rocket body
Debris
Shape & HBRUnknown
Radar Cross SectionLarge (>1 m²)

Expand to show TLE details & history

TLE from 16 hours ago
0 STARLINK-31862
1 59786U 24093E   25044.95858055  .00000880  00000-0  28339-4 0  9998
2 59786  43.0021 246.0080 0002096 259.2877 100.7744 15.40694254 43071
Epoch: 2025-02-13T23:00Z
Definitive object data (Epoch: 2025-02-13T23:00:21.359Z)
Latitude0.00001°
Longitude116.69179°
Altitude444.101 km
Speed7.647 km/s
True Right ascension16h 24m 01s
True Declination0° 00' 00"
Sunlit
Object was in daylight at TLE epoch
Visualization TLE readout
Latitude-22.16469°
Longitude-41.51912°
Altitude448.294 km
Speed7.644 km/s
Apparent Right ascension05h 58m 40s
Apparent Declination-30° 35' 37"
Sunlit
Object is in full shadow
Visualization observer readout
Local Sidereal Time18:08:20
Azimuth12.665° NNE
Elevation-80.472°
Doppler factor1
Orbital elements
Apogee altitude447.445 km
Perigee altitude444.585 km
Semi-major axis6,824.152 km
Eccentricity0.0002096
Inclination43.0021°
RAAN246.008°
Arg. of periapsis259.2877°
True anomaly100.79799°
Mean anomaly100.7744°
Eccentric anomaly100.7862°
Mean motion3.85008 °/min
BSTAR0.000028339
Orbital period93.5 mins
Loading maneuver chart data...
Loading historical data...
Loading historical data...
Loading historical data...
Loading historical data...
Loading historical data...
Loading historical data...
Loading historical data...

STARLINK-31862 Visibility forecast

Observer location: undefined°, undefined

Span
Click to sort rows by Start time (UTC) header in descending order
Start Az.
Max El. time (UTC)
Max El. Az.
Max El.
End time (UTC)
End Az.
5 mins2025-02-14 16:19:11.736Z205.197° SW2025-02-14 16:22:11.736Z134.384° SE24.89°2025-02-14 16:24:11.736Z93.528° ESE
5 mins2025-02-14 17:57:11.736Z260.767° W2025-02-14 17:59:11.736Z286.357° WNW41.426°2025-02-14 18:02:11.736Z68.816° E
5 mins2025-02-14 19:36:11.736Z297.788° NW2025-02-14 19:38:11.736Z18.701° NNE36.794°2025-02-14 19:41:11.736Z78.597° E
5 mins2025-02-14 21:14:11.736Z285.994° WNW2025-02-14 21:16:11.736Z190.735° SSW44.778°2025-02-14 21:19:11.736Z112.733° SE
|